HAZ3623 ZGGG-ZUCK

Flight info

Callsign HAZ3623
Flight time 1h 49m
Altitude 30100
Route AGVIL9 AGVIL W24 OSNOV G586 QP B330 ELKAL W179 SUMUN W3 ASIPO W678 SEGDA SEGDE1
Aircraft B77W/H-SDE1E2E3FGHIJ2J3J4J5M1RWXY/LB1D1

Departure

Time 2026-04-21 00:47
Airport Guangzhou Baiyun International Airport (ZGGG)

Arrival

Time 2026-04-21 02:36
Airport Chongqing Jiangbei International Airport (ZUCK)
Time Latitude Longitude Altitude Speed Heading
2026-04-21 00:33 23.38781 113.30353 46 ft 0 kts 284°
2026-04-21 00:36 23.38778 113.30369 46 ft 2 kts 284°
2026-04-21 00:36 23.38774 113.30385 46 ft 2 kts 283°
2026-04-21 00:36 23.38770 113.30401 46 ft 2 kts 284°
2026-04-21 00:36 23.38767 113.30417 46 ft 2 kts 284°
2026-04-21 00:37 23.38762 113.30432 46 ft 2 kts 305°
2026-04-21 00:37 23.38751 113.30443 46 ft 2 kts 335°
2026-04-21 00:37 23.38737 113.30447 46 ft 2 kts
2026-04-21 00:37 23.38729 113.30446 46 ft 1 kts 14°
2026-04-21 00:38 23.38727 113.30445 46 ft 0 kts 14°
2026-04-21 00:39 23.38728 113.30446 46 ft 1 kts 14°
2026-04-21 00:40 23.38771 113.30456 46 ft 11 kts 12°
2026-04-21 00:40 23.38881 113.30484 46 ft 20 kts 14°
2026-04-21 00:40 23.39031 113.30524 46 ft 23 kts 13°
2026-04-21 00:40 23.39202 113.30572 46 ft 25 kts 14°
2026-04-21 00:41 23.39369 113.30617 46 ft 23 kts 13°
2026-04-21 00:41 23.39536 113.30662 47 ft 26 kts 14°
2026-04-21 00:41 23.39710 113.30709 49 ft 24 kts 14°
2026-04-21 00:41 23.39879 113.30755 50 ft 26 kts 13°
2026-04-21 00:42 23.39988 113.30791 52 ft 12 kts 39°
2026-04-21 00:42 23.40024 113.30875 53 ft 13 kts 56°
2026-04-21 00:42 23.40115 113.30921 56 ft 15 kts 12°
2026-04-21 00:42 23.40220 113.30947 60 ft 16 kts 14°
2026-04-21 00:43 23.40361 113.30987 69 ft 24 kts 14°
2026-04-21 00:43 23.40526 113.31032 72 ft 22 kts 13°
2026-04-21 00:43 23.40672 113.31071 72 ft 20 kts 14°
2026-04-21 00:43 23.40811 113.31109 68 ft 20 kts 14°
2026-04-21 00:44 23.40929 113.31153 65 ft 13 kts 51°
2026-04-21 00:44 23.40925 113.31251 65 ft 12 kts 103°
2026-04-21 00:44 23.40904 113.31333 66 ft 10 kts 105°
2026-04-21 00:45 23.40850 113.31412 68 ft 4 kts 176°
2026-04-21 00:45 23.40807 113.31407 69 ft 7 kts 191°
2026-04-21 00:45 23.40751 113.31393 70 ft 0 kts 194°
2026-04-21 00:46 23.40750 113.31393 70 ft 2 kts 194°
2026-04-21 00:46 23.40465 113.31317 70 ft 87 kts 194°
2026-04-21 00:46 23.39569 113.31075 50 ft 173 kts 193°
2026-04-21 00:47 23.38213 113.30699 434 ft 216 kts 194°
2026-04-21 00:47 23.36798 113.30289 1737 ft 210 kts 194°
2026-04-21 00:47 23.35434 113.29905 2617 ft 210 kts 193°
2026-04-21 00:47 23.33983 113.29481 3192 ft 224 kts 195°
2026-04-21 00:48 23.32434 113.28958 3743 ft 243 kts 196°
2026-04-21 00:48 23.30873 113.28365 4348 ft 256 kts 198°
2026-04-21 00:48 23.29167 113.27753 5258 ft 259 kts 197°
2026-04-21 00:48 23.27443 113.27180 6217 ft 261 kts 197°
2026-04-21 00:49 23.25717 113.26588 7052 ft 265 kts 203°
2026-04-21 00:49 23.24215 113.25458 7806 ft 270 kts 230°
2026-04-21 00:49 23.23344 113.23649 8634 ft 274 kts 256°
2026-04-21 00:49 23.23265 113.21596 9493 ft 278 kts 278°
2026-04-21 00:50 23.23960 113.19621 9879 ft 286 kts 300°
2026-04-21 00:50 23.25293 113.17955 10196 ft 304 kts 311°
2026-04-21 00:50 23.26849 113.16301 10739 ft 320 kts 312°
2026-04-21 00:50 23.28497 113.14567 11278 ft 336 kts 313°
2026-04-21 00:51 23.30205 113.12773 11846 ft 350 kts 313°
2026-04-21 00:51 23.32062 113.10982 12414 ft 366 kts 320°
2026-04-21 00:51 23.34282 113.09475 12953 ft 384 kts 330°
2026-04-21 00:51 23.36820 113.08404 13525 ft 400 kts 342°
2026-04-21 00:52 23.39592 113.07885 14294 ft 410 kts 353°
2026-04-21 00:52 23.42485 113.07845 15119 ft 415 kts 358°
2026-04-21 00:52 23.45373 113.07877 15909 ft 419 kts 358°
2026-04-21 00:52 23.48318 113.07900 16685 ft 422 kts 358°
2026-04-21 00:53 23.51282 113.07916 17427 ft 426 kts 358°
2026-04-21 00:53 23.54247 113.07911 18153 ft 430 kts 357°
2026-04-21 00:53 23.57263 113.07896 18868 ft 434 kts 357°
2026-04-21 00:53 23.60282 113.07879 19566 ft 437 kts 357°
2026-04-21 00:54 23.63334 113.07859 20237 ft 441 kts 357°
2026-04-21 00:54 23.66438 113.07834 20890 ft 445 kts 356°
2026-04-21 00:54 23.69538 113.07488 21502 ft 447 kts 347°
2026-04-21 00:54 23.72538 113.06583 22110 ft 448 kts 337°
2026-04-21 00:55 23.75398 113.05260 22729 ft 450 kts 333°
2026-04-21 00:55 23.78255 113.03851 23418 ft 452 kts 333°
2026-04-21 00:55 23.81127 113.02431 24090 ft 453 kts 333°
2026-04-21 00:55 23.84012 113.01004 24714 ft 456 kts 333°
2026-04-21 00:56 23.86921 112.99567 25315 ft 460 kts 332°
2026-04-21 00:56 23.89823 112.98133 25960 ft 462 kts 332°
2026-04-21 00:56 23.92760 112.96682 26610 ft 463 kts 332°
2026-04-21 00:56 23.95713 112.95222 27197 ft 466 kts 332°
2026-04-21 00:57 23.98667 112.93761 27709 ft 470 kts 332°
2026-04-21 00:57 24.01686 112.92268 28265 ft 474 kts 332°
2026-04-21 00:57 24.04702 112.90777 28844 ft 476 kts 332°
2026-04-21 00:57 24.07722 112.89282 29449 ft 478 kts 332°
2026-04-21 00:58 24.10741 112.87788 30091 ft 478 kts 331°
2026-04-21 00:58 24.13776 112.86285 30820 ft 476 kts 331°
2026-04-21 00:58 24.16868 112.85007 31600 ft 477 kts 338°
2026-04-21 00:58 24.20066 112.83929 32380 ft 473 kts 338°
2026-04-21 00:59 24.23185 112.82896 32985 ft 472 kts 338°
2026-04-21 00:59 24.26348 112.81847 33557 ft 472 kts 338°
2026-04-21 00:59 24.29456 112.80817 34242 ft 469 kts 338°
2026-04-21 00:59 24.32606 112.79771 35110 ft 461 kts 338°
2026-04-21 01:00 24.35696 112.78734 35830 ft 456 kts 336°
2026-04-21 01:00 24.38650 112.77410 35970 ft 454 kts 328°
2026-04-21 01:00 24.43770 112.73561 35975 ft 440 kts 314°
2026-04-21 01:01 24.47579 112.68500 35971 ft 435 kts 299°
2026-04-21 01:01 24.49949 112.62652 35973 ft 432 kts 285°
2026-04-21 01:02 24.50915 112.56157 35980 ft 431 kts 276°
2026-04-21 01:02 24.51489 112.49564 35976 ft 433 kts 277°
2026-04-21 01:03 24.52092 112.42979 35978 ft 432 kts 277°
2026-04-21 01:03 24.52712 112.36356 35975 ft 431 kts 277°
2026-04-21 01:04 24.53335 112.29771 35988 ft 433 kts 277°
2026-04-21 01:04 24.53943 112.23364 35984 ft 431 kts 277°
2026-04-21 01:05 24.54563 112.16811 35992 ft 430 kts 277°
2026-04-21 01:05 24.55177 112.10301 35998 ft 431 kts 277°
2026-04-21 01:06 24.55782 112.03875 36005 ft 431 kts 277°
2026-04-21 01:06 24.56392 111.97356 36010 ft 431 kts 276°
2026-04-21 01:07 24.57009 111.90746 35999 ft 430 kts 277°
2026-04-21 01:07 24.57612 111.84237 35992 ft 430 kts 277°
2026-04-21 01:08 24.58217 111.77696 35984 ft 431 kts 277°
2026-04-21 01:08 24.58820 111.71128 35973 ft 430 kts 277°
2026-04-21 01:09 24.59417 111.64606 35965 ft 431 kts 277°
2026-04-21 01:09 24.60013 111.58058 35956 ft 431 kts 277°
2026-04-21 01:10 24.60605 111.51528 35948 ft 431 kts 277°
2026-04-21 01:10 24.61194 111.44992 35946 ft 430 kts 277°
2026-04-21 01:11 24.61778 111.38482 35943 ft 428 kts 277°
2026-04-21 01:11 24.62363 111.31935 35958 ft 430 kts 276°
2026-04-21 01:12 24.62935 111.25426 35959 ft 430 kts 276°
2026-04-21 01:12 24.63504 111.18829 35964 ft 429 kts 277°
2026-04-21 01:13 24.64068 111.12283 35969 ft 430 kts 276°
2026-04-21 01:13 24.64631 111.05707 35968 ft 431 kts 276°
2026-04-21 01:14 24.65184 110.99213 35976 ft 429 kts 276°
2026-04-21 01:14 24.65740 110.92654 35960 ft 432 kts 276°
2026-04-21 01:15 24.66294 110.86137 35951 ft 430 kts 278°
2026-04-21 01:15 24.67755 110.79766 35944 ft 430 kts 292°
2026-04-21 01:16 24.70716 110.74085 35940 ft 430 kts 306°
2026-04-21 01:16 24.74897 110.69299 35933 ft 435 kts 313°
2026-04-21 01:17 24.79296 110.64698 35931 ft 434 kts 313°
2026-04-21 01:17 24.83651 110.60126 35932 ft 434 kts 313°
2026-04-21 01:18 24.88020 110.55526 35935 ft 433 kts 313°
2026-04-21 01:18 24.92337 110.50971 35934 ft 431 kts 313°
2026-04-21 01:19 24.96703 110.46357 35937 ft 433 kts 313°
2026-04-21 01:19 25.00965 110.41848 35932 ft 432 kts 313°
2026-04-21 01:20 25.05327 110.37242 35927 ft 433 kts 313°
2026-04-21 01:20 25.09672 110.32652 35939 ft 433 kts 313°
2026-04-21 01:21 25.13977 110.28100 35931 ft 430 kts 313°
2026-04-21 01:21 25.18331 110.23490 35933 ft 431 kts 313°
2026-04-21 01:22 25.22665 110.18917 35931 ft 431 kts 313°
2026-04-21 01:22 25.27029 110.14354 35928 ft 432 kts 313°
2026-04-21 01:23 25.31385 110.09792 35920 ft 432 kts 313°
2026-04-21 01:23 25.35749 110.05217 35929 ft 430 kts 313°
2026-04-21 01:24 25.40083 110.00667 35936 ft 430 kts 313°
2026-04-21 01:24 25.44431 109.96095 35949 ft 432 kts 313°
2026-04-21 01:25 25.48761 109.91540 35950 ft 430 kts 313°
2026-04-21 01:25 25.53111 109.86958 35956 ft 429 kts 313°
2026-04-21 01:26 25.57459 109.82372 35954 ft 431 kts 314°
2026-04-21 01:26 25.61773 109.77818 35950 ft 429 kts 313°
2026-04-21 01:27 25.66120 109.73225 35947 ft 432 kts 313°
2026-04-21 01:27 25.70456 109.68639 35940 ft 430 kts 313°
2026-04-21 01:28 25.74721 109.63993 35930 ft 429 kts 308°
2026-04-21 01:28 25.77994 109.58505 35929 ft 426 kts 294°
2026-04-21 01:29 25.79956 109.52288 35933 ft 427 kts 287°
2026-04-21 01:29 25.81592 109.46108 35927 ft 426 kts 287°
2026-04-21 01:30 25.83257 109.39792 35920 ft 426 kts 287°
2026-04-21 01:30 25.84912 109.33495 35930 ft 426 kts 287°
2026-04-21 01:31 25.86581 109.27129 35933 ft 428 kts 287°
2026-04-21 01:31 25.88234 109.20813 35932 ft 426 kts 287°
2026-04-21 01:32 25.89874 109.14531 35929 ft 425 kts 286°
2026-04-21 01:32 25.91520 109.08215 35930 ft 427 kts 287°
2026-04-21 01:33 25.93186 109.01849 35929 ft 427 kts 287°
2026-04-21 01:33 25.94871 108.95529 35927 ft 426 kts 287°
2026-04-21 01:34 25.96549 108.89219 35918 ft 427 kts 287°
2026-04-21 01:34 25.98226 108.82896 35920 ft 426 kts 287°
2026-04-21 01:35 25.99897 108.76582 35921 ft 426 kts 287°
2026-04-21 01:35 26.01565 108.70279 35919 ft 425 kts 287°
2026-04-21 01:36 26.03242 108.63980 35918 ft 424 kts 287°
2026-04-21 01:36 26.04913 108.57687 35913 ft 424 kts 287°
2026-04-21 01:37 26.06578 108.51408 35910 ft 425 kts 287°
2026-04-21 01:37 26.08253 108.45077 35909 ft 424 kts 287°
2026-04-21 01:38 26.10054 108.38872 35911 ft 423 kts 294°
2026-04-21 01:38 26.12552 108.33038 35935 ft 422 kts 295°
2026-04-21 01:39 26.15087 108.27197 35944 ft 420 kts 295°
2026-04-21 01:39 26.17629 108.21328 35960 ft 421 kts 295°
2026-04-21 01:40 26.20162 108.15465 35948 ft 420 kts 295°
2026-04-21 01:40 26.22705 108.09570 35950 ft 421 kts 295°
2026-04-21 01:41 26.25245 108.03672 35948 ft 420 kts 295°
2026-04-21 01:41 26.27751 107.97844 35932 ft 417 kts 295°
2026-04-21 01:42 26.30267 107.91987 35934 ft 421 kts 295°
2026-04-21 01:42 26.32778 107.86129 35936 ft 417 kts 295°
2026-04-21 01:43 26.35287 107.80273 35934 ft 420 kts 295°
2026-04-21 01:43 26.37801 107.74393 35932 ft 419 kts 295°
2026-04-21 01:44 26.40329 107.68474 35931 ft 419 kts 295°
2026-04-21 01:44 26.42833 107.62604 35930 ft 419 kts 295°
2026-04-21 01:45 26.45324 107.56754 35927 ft 418 kts 295°
2026-04-21 01:45 26.47817 107.50890 35933 ft 418 kts 295°
2026-04-21 01:46 26.50304 107.45023 35942 ft 418 kts 294°
2026-04-21 01:46 26.52755 107.39232 35933 ft 417 kts 294°
2026-04-21 01:47 26.55245 107.33343 35955 ft 417 kts 294°
2026-04-21 01:47 26.57709 107.27524 35959 ft 415 kts 294°
2026-04-21 01:48 26.60186 107.21666 35958 ft 417 kts 294°
2026-04-21 01:48 26.62651 107.15829 35947 ft 416 kts 294°
2026-04-21 01:49 26.65120 107.10004 35948 ft 417 kts 294°
2026-04-21 01:49 26.67595 107.04183 35941 ft 413 kts 294°
2026-04-21 01:50 26.70051 106.98397 35929 ft 411 kts 294°
2026-04-21 01:50 26.72518 106.92574 35942 ft 415 kts 294°
2026-04-21 01:51 26.75372 106.87002 35941 ft 414 kts 304°
2026-04-21 01:51 26.79443 106.82368 35953 ft 421 kts 317°
2026-04-21 01:52 26.87450 106.77949 35958 ft 435 kts 339°
2026-04-21 01:52 26.90452 106.77317 35967 ft 446 kts 346°
2026-04-21 01:53 26.93569 106.77094 35977 ft 450 kts 350°
2026-04-21 01:53 26.99863 106.76841 35975 ft 453 kts 349°
2026-04-21 01:54 27.06175 106.76556 35962 ft 453 kts 349°
2026-04-21 01:54 27.12477 106.76251 35953 ft 452 kts 349°
2026-04-21 01:55 27.18802 106.75931 35939 ft 456 kts 349°
2026-04-21 01:55 27.25138 106.75608 35932 ft 452 kts 349°
2026-04-21 01:56 27.31497 106.75278 35935 ft 454 kts 349°
2026-04-21 01:56 27.37839 106.74953 35929 ft 454 kts 350°
2026-04-21 01:57 27.44220 106.74950 35931 ft 459 kts 352°
2026-04-21 01:57 27.50624 106.74982 35927 ft 457 kts 352°
2026-04-21 01:58 27.57046 106.74998 35925 ft 461 kts 352°
2026-04-21 01:58 27.63443 106.75011 35920 ft 457 kts 352°
2026-04-21 01:59 27.69854 106.75018 35918 ft 460 kts 352°
2026-04-21 01:59 27.76380 106.75019 35929 ft 474 kts 352°
2026-04-21 02:00 27.83093 106.75023 35930 ft 486 kts 352°
2026-04-21 02:00 27.89890 106.75028 35937 ft 492 kts 352°
2026-04-21 02:01 27.96799 106.75036 35938 ft 495 kts 352°
2026-04-21 02:01 28.03689 106.75043 35940 ft 494 kts 352°
2026-04-21 02:02 28.10567 106.75049 35945 ft 494 kts 352°
2026-04-21 02:02 28.17012 106.75054 35954 ft 495 kts 352°
2026-04-21 02:03 28.23750 106.75066 35968 ft 493 kts 353°
2026-04-21 02:03 28.30631 106.75078 35958 ft 491 kts 352°
2026-04-21 02:04 28.37388 106.74306 35961 ft 486 kts 345°
2026-04-21 02:04 28.44141 106.73302 35954 ft 485 kts 345°
2026-04-21 02:05 28.50818 106.72310 35952 ft 486 kts 345°
2026-04-21 02:05 28.57605 106.71302 35937 ft 487 kts 345°
2026-04-21 02:06 28.64297 106.70309 35923 ft 486 kts 345°
2026-04-21 02:06 28.71074 106.69453 35876 ft 490 kts 352°
2026-04-21 02:06 28.74461 106.69630 35260 ft 485 kts 359°
2026-04-21 02:07 28.77862 106.70123 33994 ft 488 kts
2026-04-21 02:07 28.81205 106.70643 32391 ft 495 kts
2026-04-21 02:07 28.84510 106.71159 31344 ft 490 kts
2026-04-21 02:07 28.87849 106.71681 30772 ft 475 kts
2026-04-21 02:08 28.91056 106.72186 30373 ft 458 kts
2026-04-21 02:08 28.94044 106.72951 30062 ft 446 kts 14°
2026-04-21 02:08 28.96868 106.74274 29794 ft 434 kts 24°
2026-04-21 02:08 28.99390 106.76099 29537 ft 422 kts 34°
2026-04-21 02:09 29.01524 106.78330 29151 ft 414 kts 45°
2026-04-21 02:09 29.03268 106.80913 28759 ft 410 kts 53°
2026-04-21 02:09 29.04954 106.83474 28674 ft 392 kts 45°
2026-04-21 02:09 29.06743 106.85796 28483 ft 382 kts 45°
2026-04-21 02:10 29.08439 106.88077 28083 ft 380 kts 46°
2026-04-21 02:10 29.10115 106.90437 27545 ft 380 kts 47°
2026-04-21 02:10 29.11955 106.92584 27019 ft 374 kts 35°
2026-04-21 02:10 29.13965 106.94409 26583 ft 371 kts 34°
2026-04-21 02:11 29.15975 106.96204 26232 ft 366 kts 34°
2026-04-21 02:11 29.18015 106.97978 25752 ft 362 kts 27°
2026-04-21 02:11 29.20237 106.99217 25248 ft 354 kts 12°
2026-04-21 02:11 29.22607 106.99755 24754 ft 345 kts 357°
2026-04-21 02:12 29.24958 106.99513 24256 ft 334 kts 338°
2026-04-21 02:12 29.27019 106.98395 23767 ft 322 kts 317°
2026-04-21 02:12 29.28515 106.96576 23297 ft 313 kts 297°
2026-04-21 02:12 29.29320 106.94279 22840 ft 308 kts 280°
2026-04-21 02:13 29.29386 106.91875 22374 ft 306 kts 258°
2026-04-21 02:13 29.28580 106.89629 21916 ft 308 kts 236°
2026-04-21 02:13 29.27043 106.87962 21457 ft 313 kts 213°
2026-04-21 02:13 29.24989 106.87021 21022 ft 318 kts 200°
2026-04-21 02:14 29.22860 106.86380 20623 ft 318 kts 198°
2026-04-21 02:14 29.20699 106.85776 20218 ft 317 kts 198°
2026-04-21 02:14 29.18556 106.85170 19831 ft 315 kts 198°
2026-04-21 02:14 29.16442 106.84565 19453 ft 314 kts 198°
2026-04-21 02:15 29.14335 106.83958 19074 ft 312 kts 198°
2026-04-21 02:15 29.12239 106.83356 18710 ft 311 kts 198°
2026-04-21 02:15 29.10127 106.82741 18345 ft 309 kts 198°
2026-04-21 02:15 29.08748 106.82336 18103 ft 307 kts 198°
2026-04-21 02:16 29.05988 106.81519 17486 ft 311 kts 198°
2026-04-21 02:16 29.03848 106.80875 16806 ft 322 kts 198°
2026-04-21 02:16 29.01666 106.80208 16104 ft 332 kts 198°
2026-04-21 02:16 28.99399 106.79507 15394 ft 341 kts 198°
2026-04-21 02:17 28.97109 106.78793 14673 ft 349 kts 198°
2026-04-21 02:17 28.94753 106.78056 13954 ft 355 kts 198°
2026-04-21 02:17 28.92390 106.77312 13166 ft 352 kts 198°
2026-04-21 02:17 28.90039 106.76571 12552 ft 344 kts 198°
2026-04-21 02:18 28.87746 106.75843 11947 ft 336 kts 198°
2026-04-21 02:18 28.85528 106.75133 11353 ft 328 kts 198°
2026-04-21 02:18 28.83420 106.74247 10766 ft 319 kts 212°
2026-04-21 02:18 28.81769 106.72674 10278 ft 308 kts 232°
2026-04-21 02:19 28.80780 106.70529 9608 ft 310 kts 252°
2026-04-21 02:19 28.80574 106.68108 9258 ft 302 kts 273°
2026-04-21 02:19 28.81092 106.65874 9120 ft 290 kts 289°
2026-04-21 02:19 28.81939 106.63801 8693 ft 286 kts 292°
2026-04-21 02:20 28.82800 106.61772 8069 ft 288 kts 293°
2026-04-21 02:20 28.83673 106.59721 7570 ft 285 kts 293°
2026-04-21 02:20 28.84529 106.57707 7326 ft 278 kts 294°
2026-04-21 02:20 28.85363 106.55747 6929 ft 274 kts 294°
2026-04-21 02:21 28.86198 106.53780 6312 ft 277 kts 295°
2026-04-21 02:21 28.87038 106.51802 5771 ft 278 kts 295°
2026-04-21 02:21 28.87868 106.49845 5219 ft 278 kts 296°
2026-04-21 02:21 28.88713 106.47868 5101 ft 267 kts 298°
2026-04-21 02:22 28.89659 106.46121 5095 ft 253 kts 306°
2026-04-21 02:22 28.90755 106.44618 5046 ft 242 kts 314°
2026-04-21 02:22 28.92007 106.43378 4769 ft 240 kts 324°
2026-04-21 02:22 28.93402 106.42348 4435 ft 240 kts 332°
2026-04-21 02:23 28.94969 106.41692 4174 ft 231 kts 353°
2026-04-21 02:23 28.96508 106.41489 4149 ft 216 kts 352°
2026-04-21 02:23 28.97975 106.41296 3911 ft 210 kts 355°
2026-04-21 02:23 28.99473 106.41212 3911 ft 214 kts
2026-04-21 02:24 29.00973 106.41277 3919 ft 215 kts
2026-04-21 02:24 29.02461 106.41445 3897 ft 213 kts
2026-04-21 02:24 29.03974 106.41700 4199 ft 221 kts 10°
2026-04-21 02:24 29.05488 106.42035 4475 ft 224 kts 11°
2026-04-21 02:25 29.07023 106.42423 4714 ft 226 kts 13°
2026-04-21 02:25 29.08563 106.42845 4928 ft 229 kts 14°
2026-04-21 02:25 29.10112 106.43298 4896 ft 228 kts 14°
2026-04-21 02:25 29.11672 106.43771 4907 ft 228 kts 15°
2026-04-21 02:26 29.13207 106.44247 4925 ft 230 kts 15°
2026-04-21 02:26 29.14752 106.44739 4897 ft 230 kts 15°
2026-04-21 02:26 29.16300 106.45239 4909 ft 231 kts 15°
2026-04-21 02:26 29.17843 106.45744 4899 ft 230 kts 16°
2026-04-21 02:27 29.19385 106.46254 4889 ft 230 kts 17°
2026-04-21 02:27 29.20934 106.46769 4908 ft 230 kts 17°
2026-04-21 02:27 29.22481 106.47289 4918 ft 233 kts 16°
2026-04-21 02:27 29.24073 106.47826 4901 ft 239 kts 16°
2026-04-21 02:28 29.25665 106.48367 4900 ft 241 kts 17°
2026-04-21 02:28 29.27278 106.48915 4913 ft 241 kts 17°
2026-04-21 02:28 29.28906 106.49469 4888 ft 241 kts 17°
2026-04-21 02:28 29.30504 106.50012 4900 ft 242 kts 18°
2026-04-21 02:29 29.32129 106.50565 4903 ft 241 kts 17°
2026-04-21 02:29 29.33733 106.51112 4892 ft 242 kts 16°
2026-04-21 02:29 29.35366 106.51668 4897 ft 243 kts 17°
2026-04-21 02:29 29.36996 106.52223 4906 ft 241 kts 17°
2026-04-21 02:30 29.38610 106.52773 4897 ft 241 kts 18°
2026-04-21 02:30 29.40213 106.53319 4915 ft 240 kts 17°
2026-04-21 02:30 29.41813 106.53864 4902 ft 241 kts 17°
2026-04-21 02:30 29.43433 106.54417 4913 ft 242 kts 17°
2026-04-21 02:31 29.45058 106.54971 4913 ft 243 kts 17°
2026-04-21 02:31 29.46664 106.55520 4911 ft 242 kts 17°
2026-04-21 02:31 29.48294 106.56077 4904 ft 243 kts 17°
2026-04-21 02:31 29.49909 106.56628 4906 ft 242 kts 17°
2026-04-21 02:32 29.51520 106.57180 4897 ft 237 kts 17°
2026-04-21 02:32 29.53048 106.57698 4872 ft 223 kts 17°
2026-04-21 02:32 29.54536 106.58202 4596 ft 221 kts 18°
2026-04-21 02:32 29.56018 106.58708 4297 ft 220 kts 18°
2026-04-21 02:33 29.57448 106.59197 4001 ft 210 kts 18°
2026-04-21 02:33 29.58812 106.59663 3760 ft 197 kts 18°
2026-04-21 02:33 29.60098 106.60103 3520 ft 193 kts 18°
2026-04-21 02:33 29.61395 106.60548 3270 ft 186 kts 18°
2026-04-21 02:34 29.62557 106.60947 3038 ft 166 kts 18°
2026-04-21 02:34 29.63640 106.61320 2819 ft 157 kts 17°
2026-04-21 02:34 29.64669 106.61672 2611 ft 153 kts 17°
2026-04-21 02:34 29.65678 106.62019 2410 ft 152 kts 16°
2026-04-21 02:35 29.66697 106.62375 2201 ft 151 kts 16°
2026-04-21 02:35 29.67699 106.62743 1994 ft 151 kts 15°
2026-04-21 02:35 29.68695 106.63064 1805 ft 148 kts 13°
2026-04-21 02:35 29.69732 106.63408 1607 ft 157 kts 14°
2026-04-21 02:36 29.70792 106.63769 1389 ft 153 kts 14°
2026-04-21 02:36 29.71710 106.64085 1377 ft 119 kts 17°
2026-04-21 02:36 29.72369 106.64313 1377 ft 69 kts 18°
2026-04-21 02:36 29.72674 106.64466 1377 ft 41 kts 41°
2026-04-21 02:37 29.72772 106.64616 1377 ft 13 kts 111°
2026-04-21 02:37 29.72695 106.64630 1377 ft 12 kts 195°
2026-04-21 02:37 29.72565 106.64587 1377 ft 24 kts 197°
2026-04-21 02:37 29.72387 106.64525 1377 ft 24 kts 197°
2026-04-21 02:38 29.72243 106.64485 1377 ft 16 kts 166°
2026-04-21 02:38 29.72181 106.64607 1377 ft 21 kts 106°
2026-04-21 02:38 29.72136 106.64789 1377 ft 26 kts 107°
2026-04-21 02:38 29.72085 106.64962 1377 ft 17 kts 128°
2026-04-21 02:39 29.71978 106.64966 1377 ft 15 kts 196°
2026-04-21 02:39 29.71886 106.64934 1377 ft 11 kts 198°
2026-04-21 02:39 29.71810 106.64909 1377 ft 14 kts 196°
2026-04-21 02:39 29.71731 106.64887 1377 ft 6 kts 167°
2026-04-21 02:40 29.71704 106.64927 1377 ft 3 kts 107°
2026-04-21 02:40 29.71699 106.64955 1377 ft 3 kts 101°
2026-04-21 02:40 29.71699 106.64957 1377 ft 0 kts 101°